Weather History for Ozark, AL

Change the Weather History Date:

Friday, November 18, 2011

  Actual Average Record
Temperature  
Mean Temperature 50 °F -  
Max Temperature 65 °F 66 °F 80 °F (2013)
Min Temperature 36 °F 45 °F 26 °F (1997)
Degree Days  
Heating Degree Days 14    
Moisture  
Dew Point 35 °F    
Average Humidity 53    
Maximum Humidity 74    
Minimum Humidity 40    
Precipitation  
Precipitation 0.00 in - - ()
Sea Level Pressure  
Sea Level Pressure 30.29 in    
Wind  
Wind Speed 10 mph (ENE)    
Max Wind Speed 15 mph    
Max Gust Speed 22 mph    
Visibility 10 miles    
Events      
Averages and records for this station are not official NWS values.
T = Trace of Precipitation, MM = Missing Value Source: NWS Daily Summary

Daily Weather History Graph

Daily Weather History Graph

Search for Another Location

Airport:

Trip Planner

Search our weather history database for the weather conditions in past years. The results will help you decide how hot, cold, wet, or windy it might be!

Date:

Astronomy

Nov. 18, 2011 Rise Set
Actual Time 6:12 AM CST 4:43 PM CST
Civil Twilight 5:46 AM CST 5:08 PM CST
Nautical Twilight 5:17 AM CST 5:38 PM CST
Astronomical Twilight 4:48 AM CST 6:07 PM CST
Moon 11:57 PM CST (11/18) 12:03 PM CST (11/18)
Length of Visible Light 11h 22m
Length of Day
10h 30m
Waning Gibbous, 49% of the Moon is Illuminated
Nov 18
Waning Gibbous
Nov 25
New
Dec 2
First Quarter
Dec 10
Full
Dec 17
Last Quarter

Hourly Weather History & Observations

Time (CST) Temp. Windchill Dew Point Humidity Pressure Visibility Wind Dir Wind Speed Gust Speed Precip Events Conditions
12:55 AM 43.5 °F 37.5 °F 22.8 °F 44% 30.28 in 10.0 mi NNE 11.5 mph - N/A   Clear
1:55 AM 41.5 °F 35.9 °F 23.4 °F 49% 30.29 in 10.0 mi NNE 9.2 mph - N/A   Clear
2:55 AM 39.4 °F 34.5 °F 23.7 °F 54% 30.30 in 10.0 mi NNE 6.9 mph - N/A   Clear
3:55 AM 38.3 °F 32.5 °F 24.1 °F 57% 30.30 in 10.0 mi NNE 8.1 mph - N/A   Clear
4:55 AM 37.0 °F 31.0 °F 24.8 °F 61% 30.31 in 10.0 mi NNE 8.1 mph - N/A   Clear
5:55 AM 36.9 °F 30.7 °F 25.3 °F 63% 30.33 in 10.0 mi NNE 8.1 mph - N/A   Clear
6:55 AM 37.9 °F 32.1 °F 26.4 °F 63% 30.35 in 10.0 mi NE 8.1 mph - N/A   Clear
7:55 AM 42.8 °F 37.5 °F 28.2 °F 56% 30.35 in 10.0 mi NE 9.2 mph - N/A   Clear
8:55 AM 50.9 °F - 34.5 °F 54% 30.35 in 10.0 mi ENE 15.0 mph 21.9 mph N/A   Clear
9:55 AM 55.2 °F - 36.1 °F 49% 30.35 in 10.0 mi ENE 12.7 mph - N/A   Clear
10:55 AM 59.4 °F - 38.1 °F 45% 30.33 in 10.0 mi ENE 15.0 mph - N/A   Clear
11:55 AM 61.9 °F - 39.6 °F 44% 30.29 in 10.0 mi ENE 11.5 mph - N/A   Clear
12:55 PM 63.9 °F - 39.6 °F 41% 30.27 in 10.0 mi ENE 10.4 mph 16.1 mph N/A   Clear
1:55 PM 65.3 °F - 40.1 °F 40% 30.25 in 10.0 mi East 8.1 mph 18.4 mph N/A   Clear
2:55 PM 65.1 °F - 40.3 °F 40% 30.25 in 10.0 mi ENE 8.1 mph - N/A   Clear
3:55 PM 63.5 °F - 40.1 °F 42% 30.25 in 10.0 mi East 9.2 mph - N/A   Clear
4:55 PM 60.8 °F - 39.7 °F 46% 30.26 in 10.0 mi East 8.1 mph - N/A   Mostly Cloudy
5:55 PM 58.6 °F - 38.8 °F 48% 30.28 in 10.0 mi East 6.9 mph - N/A   Mostly Cloudy
6:55 PM 57.7 °F - 38.3 °F 48% 30.28 in 10.0 mi ENE 10.4 mph - N/A   Mostly Cloudy
7:55 PM 56.1 °F - 38.1 °F 51% 30.29 in 10.0 mi East 9.2 mph - N/A   Mostly Cloudy
8:55 PM 54.1 °F - 40.5 °F 60% 30.29 in 10.0 mi East 8.1 mph - N/A   Clear
9:55 PM 52.9 °F - 41.9 °F 66% 30.28 in 10.0 mi East 9.2 mph - N/A   Partly Cloudy
10:55 PM 51.8 °F - 42.4 °F 70% 30.27 in 10.0 mi East 5.8 mph - N/A   Clear
11:55 PM 51.6 °F - 43.7 °F 74% 30.26 in 10.0 mi East 8.1 mph - N/A   Clear